This is the latest recevied weather packets stored in our database for station/object WD4IXD-WX. If no packets are shown the sender has not sent any weather packets the latest 10 day(s).
| Time | Temp. | Humidity | Pressure | Rain* | Wind** | Luminosity | Snow |
|---|---|---|---|---|---|---|---|
| 1778031304 | -2.78° C | 90% | 1012.6 hPa | 0 mm | - | 11 W/m² | - |
| 1778031004 | -2.78° C | 90% | 1012.5 hPa | 0 mm | - | 16 W/m² | - |
| 1778030704 | -2.78° C | 90% | 1012.4 hPa | 0 mm | - | 23 W/m² | - |
| 1778030404 | -2.22° C | 90% | 1012.4 hPa | 0 mm | - | 28 W/m² | - |
| 1778030104 | -2.22° C | 90% | 1012.4 hPa | 0 mm | - | 83 W/m² | - |
| 1778029804 | -2.22° C | 89% | 1012.5 hPa | 0 mm | - | 65 W/m² | - |
| 1778029504 | -2.22° C | 89% | 1012.5 hPa | 0 mm | - | 33 W/m² | - |
| 1778029204 | -2.22° C | 89% | 1012.3 hPa | 0 mm | - | 35 W/m² | - |
| 1778028904 | -1.67° C | 89% | 1012.1 hPa | 0 mm | - | 25 W/m² | - |
| 1778028604 | -1.67° C | 89% | 1011.9 hPa | 0 mm | - | 21 W/m² | - |
| 1778028304 | -1.67° C | 88% | 1012.1 hPa | 0 mm | - | 11 W/m² | - |
| 1778028004 | -1.67° C | 88% | 1012.1 hPa | 0 mm | - | 14 W/m² | - |
| 1778027704 | -1.11° C | 88% | 1012 hPa | 0 mm | - | 26 W/m² | - |
| 1778027404 | -1.11° C | 87% | 1012.1 hPa | 0 mm | - | 49 W/m² | - |
| 1778027104 | -1.11° C | 86% | 1012.2 hPa | 0 mm | - | 84 W/m² | - |
| 1778026804 | -0.56° C | 85% | 1012.1 hPa | 0 mm | - | 83 W/m² | - |
| 1778026504 | -0.56° C | 84% | 1012 hPa | 0 mm | - | 42 W/m² | - |
| 1778026204 | 0° C | 82% | 1012.1 hPa | 0 mm | - | 56 W/m² | - |
| 1778025904 | 0.56° C | 80% | 1012.3 hPa | 0 mm | - | 28 W/m² | - |
| 1778025603 | 1.11° C | 78% | 1012.1 hPa | 0 mm | - | 23 W/m² | - |
| 1778025304 | 1.11° C | 77% | 1011.9 hPa | 0 mm | - | 49 W/m² | - |
| 1778025004 | 1.67° C | 78% | 1011.8 hPa | 0 mm | - | 65 W/m² | - |
| 1778024704 | 2.22° C | 77% | 1011.8 hPa | 0 mm | - | 97 W/m² | - |
| 1778024404 | 2.22° C | 78% | 1011.7 hPa | 0 mm | - | 155 W/m² | - |
| 1778024104 | 2.22° C | 77% | 1011.7 hPa | 0 mm | - | 225 W/m² | - |
* Rain latest hour (hover to see other rain measurements)
** Current wind speed in m/s (hover to see current wind gust speed)